User: anonymous   Login
Location: Carter Cabin
(41.0271°N, 122.9339°W)
Time: 09:06:37
(UTC+00:00)
Language:

KORONAS-FOTON - Orbit

View from above orbital plane
View from above orbital plane
View from above satellite
View from above satellite

Ground track
Ground track

The orbit data is extracted from the following two-line orbital elements,

1 33504U 09003A   24169.52554697  .00006422  00000-0  24551-3 0  9996
2 33504  82.4369 202.4558 0014172 235.0899 124.9008 15.26319894849076
Epoch (UTC): 17 June 2024 12:36:47
Eccentricity: 0.0014172
inclination: 82.4369°
perigee height: 477 km
apogee height: 496 km
right ascension of ascending node: 202.4558°
argument of perigee: 235.0899°
revolutions per day: 15.26319894
mean anomaly at epoch: 124.9008°
orbit number at epoch: 84907

The dashed part of the orbit path shows where the satellite is in the earth's shadow,  

DLR